DW8102 Weather Reports


Display with metric or nautical units.
time (UTC)temp
F
wind
direction
speed
MPH
gust
MPH
rain 1hr
in
rain 24hr
in
rain mn
in
humidity
%
barometer
mb
20260507213046 43 68 0.0 0.0 0.00 0.00 0.00 50 1020.7
20260507211536 43 101 0.0 0.0 0.00 0.00 0.00 47 1020.4
20260507204530 45 93 0.0 0.0 0.00 0.00 0.00 43 1020.0
20260507203027 45 76 0.0 0.0 0.00 0.00 0.00 42 1019.8
20260507201529 46 51 0.0 0.0 0.00 0.00 0.00 38 1019.7
20260507194542 48 141 0.0 1.0 0.00 0.00 0.00 36 1018.9
20260507193103 49 139 0.0 1.0 0.00 0.00 0.00 35 1018.7
20260507191536 50 134 0.0 0.0 0.00 0.00 0.00 39 1018.4
20260507184505 53 156 0.0 1.0 0.00 0.00 0.00 34 1017.8
20260507183114 55 131 0.0 1.0 0.00 0.00 0.00 31 1017.8
20260507183003 55 131 0.0 1.0 0.00 0.00 0.00 32 1017.8
20260507181558 55 149 0.0 2.0 0.00 0.00 0.00 31 1017.5
20260507174554 58 162 0.0 2.0 0.00 0.00 0.00 28 1017.1
20260507173118 57 144 0.0 1.0 0.00 0.00 0.00 32 1017.0
20260507171549 57 143 0.0 2.0 0.00 0.00 0.00 32 1016.9
20260507164543 57 66 0.0 0.0 0.00 0.00 0.00 40 1016.5
20260507163039 59 60 0.0 0.0 0.00 0.00 0.00 39 1016.4
20260507161536 60 357 0.0 0.0 0.00 0.00 0.00 36 1016.4
20260507154535 58 29 0.0 0.0 0.00 0.00 0.00 39 1016.2
20260507153033 59 332 0.0 0.0 0.00 0.00 0.00 38 1016.1
20260507151527 58 15 0.0 0.0 0.00 0.00 0.00 38 1016.1
20260507144528 61 359 0.0 0.0 0.00 0.00 0.00 34 1016.0
20260507143014 59 338 0.0 1.0 0.00 0.00 0.00 34 1015.9
20260507141510 58 351 0.0 0.0 0.00 0.00 0.00 32 1015.9
20260507134504 58 352 0.0 0.0 0.00 0.00 0.00 35 1015.8
20260507133003 58 334 0.0 0.0 0.00 0.00 0.00 33 1015.8
20260507131600 58 57 0.0 0.0 0.00 0.00 0.00 35 1015.9
20260507124552 58 45 0.0 0.0 0.00 0.00 0.00 39 1015.8
20260507123048 58 342 0.0 0.0 0.00 0.00 0.00 36 1015.9
20260507121544 58 344 0.0 0.0 0.00 0.00 0.00 39 1015.8
20260507114534 57 345 0.0 0.0 0.00 0.00 0.00 37 1016.0
20260507113031 56 340 0.0 1.0 0.00 0.00 0.00 38 1016.0
20260507111536 56 12 0.0 0.0 0.00 0.00 0.00 38 1016.0
20260507104530 55 355 0.0 0.0 0.00 0.00 0.00 41 1016.0
20260507103032 54 360 0.0 1.0 0.00 0.00 0.00 42 1015.9
20260507101528 54 335 0.0 0.0 0.00 0.00 0.00 49 1015.7
20260507094527 53 322 0.0 1.0 0.00 0.00 0.00 50 1015.6
20260507093033 53 34 0.0 1.0 0.00 0.00 0.00 54 1015.6
20260507091527 52 346 0.0 0.0 0.00 0.00 0.00 51 1015.6
20260507084524 51 343 0.0 0.0 0.00 0.00 0.00 52 1015.7
20260507083028 51 43 0.0 0.0 0.00 0.00 0.00 53 1015.6
20260507081533 50 11 0.0 0.0 0.00 0.00 0.00 54 1015.5
20260507074522 51 340 0.0 1.0 0.00 0.00 0.00 51 1015.6
20260507073021 52 336 0.0 0.0 0.00 0.00 0.00 47 1015.5
20260507071523 51 195 0.0 1.0 0.00 0.00 0.00 39 1015.5
20260507064519 49 198 0.0 0.0 0.00 0.00 0.00 44 1015.4
20260507063018 50 127 0.0 0.0 0.00 0.00 0.00 47 1015.4
20260507061516 48 215 0.0 0.0 0.00 0.00 0.00 52 1015.3
20260507054515 47 198 0.0 0.0 0.00 0.00 0.00 65 1015.2
20260507053015 44 190 0.0 0.0 0.00 0.00 0.00 72 1015.2
20260507051515 40 219 0.0 0.0 0.00 0.00 0.00 80 1015.2
20260507044515 39 124 0.0 0.0 0.00 0.00 0.00 85 1014.9
20260507043013 38 119 0.0 0.0 0.00 0.00 0.00 87 1014.8
20260507041531 38 124 0.0 0.0 0.00 0.00 0.00 89 1014.7
20260507034513 34 110 0.0 0.0 0.00 0.00 0.00 95 1014.5
20260507033012 32 91 0.0 0.0 0.00 0.00 0.00 94 1014.4
20260507031607 32 90 0.0 0.0 0.00 0.00 0.00 93 1014.4
20260507024504 32 91 0.0 0.0 0.00 0.00 0.00 92 1014.5
20260507023001 33 90 0.0 0.0 0.00 0.00 0.00 92 1014.4
20260507021500 33 91 0.0 0.0 0.00 0.00 0.00 92 1014.4
20260507020200 33 90 0.0 0.0 0.00 0.00 0.00 91 1014.5
20260507014608 33 90 0.0 0.0 0.00 0.00 0.00 92 1014.5
20260507013113 33 90 0.0 0.0 0.00 0.00 0.00 90 1014.4
20260507011555 33 90 0.0 0.0 0.00 0.00 0.00 89 1014.4
20260507010154 33 90 0.0 0.0 0.00 0.00 0.00 88 1014.4
20260507004553 34 91 0.0 0.0 0.00 0.00 0.00 86 1014.3
20260507003052 34 91 0.0 0.0 0.00 0.00 0.00 85 1014.3
20260507001608 35 90 0.0 0.0 0.00 0.00 0.00 85 1014.2
20260507000148 35 167 0.0 0.0 0.00 0.00 0.00 84 1014.0
20260506234546 35 167 0.0 0.0 0.00 0.00 0.00 81 1014.0
20260506233047 36 196 0.0 0.0 0.00 0.00 0.00 81 1014.0
20260506231544 37 198 0.0 0.0 0.00 0.00 0.00 80 1014.1
20260506230136 38 198 0.0 0.0 0.00 0.00 0.00 76 1013.9
20260506224534 39 198 0.0 0.0 0.00 0.00 0.00 75 1013.9
20260506223031 39 188 0.0 0.0 0.00 0.00 0.00 73 1013.7
20260506221529 40 153 0.0 0.0 0.00 0.00 0.00 72 1013.7
20260506220128 40 163 0.0 1.0 0.00 0.00 0.00 71 1013.6
20260506214524 41 139 0.0 1.0 0.00 0.00 0.00 70 1013.5